Weather History for Marathon, FL

Change the Weather History Date:

Sunday, January 13, 2013

  Actual Average Record
Temperature  
Mean Temperature 78 °F 69 °F  
Max Temperature 82 °F 75 °F 84 °F (2008)
Min Temperature 74 °F 64 °F 49 °F (2011)
Degree Days  
Heating Degree Days 0 1  
Month to date heating degree days 0 22  
Since 1 July heating degree days 6 43  
Cooling Degree Days 13 6  
Month to date cooling degree days 166 78  
Year to date cooling degree days 166 78  
Growing Degree Days 28 (Base 50)    
Moisture  
Dew Point 62 °F    
Average Humidity 63    
Maximum Humidity 74    
Minimum Humidity 51    
Precipitation  
Precipitation 0.01 in 0.05 in 0.20 in (2003)
Month to date precipitation 0.12 0.73  
Year to date precipitation 0.12 0.73  
Snow  
Snow 0.00 in - - ()
Month to date snowfall 0.0  
Since 1 July snowfall 0.0  
Snow Depth 0.00 in    
Sea Level Pressure  
Sea Level Pressure 30.08 in    
Wind  
Wind Speed 9 mph (ESE)    
Max Wind Speed 15 mph    
Max Gust Speed 25 mph    
Visibility 10 miles    
Events Rain    
T = Trace of Precipitation, MM = Missing Value Source: NWS Daily Summary

Daily Weather History Graph

Daily Weather History Graph

Search for Another Location

Airport:

Trip Planner

Search our weather history database for the weather conditions in past years. The results will help you decide how hot, cold, wet, or windy it might be!

Date:

Astronomy

Jan. 13, 2013 Rise Set
Actual Time 7:10 AM EST 5:55 PM EST
Civil Twilight 6:46 AM EST 6:20 PM EST
Nautical Twilight 6:17 AM EST 6:48 PM EST
Astronomical Twilight 5:50 AM EST 7:15 PM EST
Moon 8:25 AM EST (1/13) 8:12 PM EST (1/13)
Length of Visible Light 11h 34m
Length of Day
10h 45m
Waxing Crescent, 5% of the Moon is Illuminated
Jan 13
Waxing Crescent
Jan 18
First Quarter
Jan 26
Full
Feb 3
Last Quarter
Feb 10
New

Hourly Weather History & Observations

Time (EST) Temp. Heat Index Dew Point Humidity Pressure Visibility Wind Dir Wind Speed Gust Speed Precip Events Conditions
12:53 AM 75.9 °F - 66.0 °F 71% 30.06 in 10.0 mi East 9.2 mph - N/A   Mostly Cloudy
1:11 AM 75.2 °F - 66.2 °F 73% 30.06 in 10.0 mi East 9.2 mph - 0.00 in Rain Light Rain
1:53 AM 75.9 °F - 66.9 °F 74% 30.06 in 10.0 mi East 9.2 mph 19.6 mph 0.00 in   Overcast
2:33 AM 75.2 °F - 66.2 °F 73% 30.06 in 10.0 mi ESE 9.2 mph 18.4 mph 0.01 in   Mostly Cloudy
2:53 AM 75.0 °F - 66.0 °F 73% 30.06 in 10.0 mi ESE 9.2 mph 17.3 mph 0.01 in   Partly Cloudy
3:53 AM 75.0 °F - 66.0 °F 73% 30.05 in 10.0 mi East 8.1 mph 16.1 mph N/A   Scattered Clouds
4:53 AM 75.0 °F - 64.9 °F 71% 30.04 in 10.0 mi ESE 8.1 mph 18.4 mph N/A   Partly Cloudy
5:53 AM 75.0 °F - 64.0 °F 69% 30.06 in 10.0 mi East 8.1 mph - N/A   Partly Cloudy
6:53 AM 75.0 °F - 64.9 °F 71% 30.06 in 10.0 mi East 8.1 mph - N/A   Scattered Clouds
7:53 AM 75.9 °F - 63.0 °F 64% 30.06 in 10.0 mi ESE 13.8 mph 25.3 mph N/A   Mostly Cloudy
8:53 AM 77.0 °F - 63.0 °F 62% 30.07 in 10.0 mi ESE 10.4 mph 21.9 mph N/A   Scattered Clouds
9:53 AM 78.1 °F - 61.0 °F 56% 30.09 in 10.0 mi East 10.4 mph 20.7 mph N/A   Clear
10:53 AM 80.1 °F 81.2 °F 62.1 °F 54% 30.08 in 10.0 mi ESE 10.4 mph 19.6 mph N/A   Clear
11:53 AM 79.0 °F - 62.1 °F 56% 30.09 in 10.0 mi ESE 6.9 mph - N/A   Mostly Cloudy
12:53 PM 79.0 °F - 62.1 °F 56% 30.09 in 10.0 mi Variable 5.8 mph - N/A   Overcast
1:53 PM 81.0 °F 82.2 °F 63.0 °F 54% 30.09 in 10.0 mi ESE 6.9 mph - N/A   Overcast
2:53 PM 81.0 °F 81.7 °F 61.0 °F 50% 30.07 in 10.0 mi ESE 8.1 mph - N/A   Mostly Cloudy
3:53 PM 79.0 °F - 60.1 °F 52% 30.09 in 10.0 mi ESE 8.1 mph - N/A   Clear
4:53 PM 77.0 °F - 60.1 °F 56% 30.10 in 10.0 mi East 6.9 mph - N/A   Scattered Clouds
5:53 PM 75.0 °F - 57.9 °F 55% 30.11 in 10.0 mi East 8.1 mph - N/A   Clear
6:53 PM 75.9 °F - 57.0 °F 52% 30.11 in 10.0 mi East 9.2 mph - N/A   Mostly Cloudy
7:53 PM 75.9 °F - 59.0 °F 56% 30.10 in 10.0 mi East 10.4 mph - N/A   Scattered Clouds
8:53 PM 75.0 °F - 57.0 °F 53% 30.09 in 10.0 mi ESE 8.1 mph 16.1 mph N/A   Scattered Clouds
9:53 PM 75.0 °F - 57.9 °F 55% 30.09 in 10.0 mi East 10.4 mph 17.3 mph N/A   Scattered Clouds
10:53 PM 75.0 °F - 57.0 °F 53% 30.09 in 10.0 mi ESE 10.4 mph 18.4 mph N/A   Scattered Clouds
11:53 PM 75.9 °F - 59.0 °F 56% 30.10 in 10.0 mi ESE 10.4 mph - N/A   Mostly Cloudy